TimeEDT,TemperatureF,Dew PointF,Humidity,Sea Level PressureIn,VisibilityMPH,Wind Direction,Wind SpeedMPH,Gust SpeedMPH,PrecipitationIn,Events,Conditions,WindDirDegrees,DateUTC
12:53 AM,75.0,72.0,90,30.04,10.0,NW,3.5,-,N/A,,Clear,320,2012-10-10 04:53:00
1:53 AM,75.0,72.0,90,30.03,10.0,Calm,Calm,-,N/A,,Partly Cloudy,0,2012-10-10 05:53:00
2:53 AM,73.0,71.1,93,30.01,8.0,Calm,Calm,-,N/A,,Clear,0,2012-10-10 06:53:00
3:53 AM,73.0,71.1,93,30.01,9.0,West,3.5,-,N/A,,Clear,270,2012-10-10 07:53:00
4:53 AM,72.0,71.1,97,30.01,8.0,NW,4.6,-,N/A,,Clear,320,2012-10-10 08:53:00
5:53 AM,73.0,71.1,93,30.03,9.0,NNW,4.6,-,N/A,,Clear,330,2012-10-10 09:53:00
6:53 AM,73.0,71.1,93,30.05,7.0,West,4.6,-,N/A,,Clear,280,2012-10-10 10:53:00
7:53 AM,73.0,71.1,93,30.06,5.0,NW,3.5,-,N/A,,Clear,310,2012-10-10 11:53:00
8:53 AM,80.1,75.0,85,30.07,10.0,North,6.9,-,N/A,,Clear,360,2012-10-10 12:53:00
9:53 AM,81.0,73.0,77,30.08,10.0,North,11.5,-,N/A,,Scattered Clouds,360,2012-10-10 13:53:00
10:18 AM,82.4,73.4,74,30.09,10.0,North,9.2,-,N/A,,Mostly Cloudy,10,2012-10-10 14:18:00
10:53 AM,81.0,72.0,74,30.09,10.0,North,11.5,-,N/A,,Mostly Cloudy,360,2012-10-10 14:53:00
11:53 AM,82.9,73.0,72,30.09,10.0,North,15.0,21.9,N/A,,Mostly Cloudy,360,2012-10-10 15:53:00
12:29 PM,84.2,73.4,70,30.09,10.0,NNE,16.1,20.7,N/A,,Mostly Cloudy,30,2012-10-10 16:29:00
12:53 PM,84.0,73.0,69,30.08,10.0,NNE,13.8,-,N/A,,Mostly Cloudy,20,2012-10-10 16:53:00
1:53 PM,84.0,72.0,67,30.06,10.0,North,15.0,-,N/A,,Scattered Clouds,10,2012-10-10 17:53:00
2:53 PM,84.0,70.0,63,30.05,10.0,NNE,13.8,-,N/A,,Scattered Clouds,30,2012-10-10 18:53:00
3:53 PM,82.9,70.0,65,30.04,10.0,NNE,15.0,-,N/A,,Scattered Clouds,20,2012-10-10 19:53:00
4:53 PM,81.0,69.1,67,30.04,10.0,North,10.4,19.6,N/A,,Partly Cloudy,10,2012-10-10 20:53:00
5:53 PM,80.1,68.0,67,30.04,10.0,NNE,13.8,-,N/A,,Clear,20,2012-10-10 21:53:00
6:53 PM,77.0,66.0,69,30.04,10.0,North,6.9,-,N/A,,Clear,10,2012-10-10 22:53:00
7:53 PM,75.9,66.0,71,30.06,10.0,NNE,8.1,-,N/A,,Clear,20,2012-10-10 23:53:00
8:53 PM,75.9,64.9,69,30.07,10.0,NNE,5.8,-,N/A,,Clear,30,2012-10-11 00:53:00
9:53 PM,75.0,64.9,71,30.09,10.0,NNE,5.8,-,N/A,,Clear,30,2012-10-11 01:53:00
10:53 PM,73.9,64.9,73,30.09,10.0,NNE,5.8,-,N/A,,Clear,30,2012-10-11 02:53:00
11:53 PM,70.0,64.0,81,30.10,10.0,NNE,4.6,-,N/A,,Clear,20,2012-10-11 03:53:00